Terug naar catalogus

STARLINK-31580

ActiefCommunicatieVLEO
NORAD 59434·PAYLOAD·🇺🇸 United States

Gelanceerd Apr 7, 2024 vanaf Vandenberg Space Force Base

Loading…

Volgende Passages (komende 24 uur)

TLE

VersSource: CelesTrak SupGP

Epoch: Sep 14, 2026, 22:33 UTC

1 59434C 24065P   26257.94006944 -.00041181  00000+0 -12168-2 0  2573
2 59434  53.1573 123.3666 0001373  92.6325 286.5003 15.34409344    11

Volg STARLINK-31580 in realtime met AllMySat

Download on the App Store